Regional Weather Roundup
Issued by NWS

Home | Current Version | Previous Version | Graphics & Text | Print | Product List | Glossary On
Versions: 1 2 3 4 5 6 7 8 9 10 11 12 13 14 15 16 17 18 19 20 21 22 23 24 25 26 27 28 29 30 31 32 33 34 35 36 37 38 39 40 41 42 43 44 45 46 47 48 49 50
000
ASUS43 KLSX 240107
RWRMO

WEATHER SUMMARY FOR MISSOURI
NATIONAL WEATHER SERVICE SPRINGFIELD MO
800 PM CDT THU OCT 23 2014

NOTE: "FAIR" INDICATES FEW OR NO CLOUDS BELOW 12,000 FEET WITH NO
       SIGNIFICANT WEATHER AND/OR OBSTRUCTIONS TO VISIBILITY.
       CURRENT SKY AND/OR WEATHER CONDITIONS ARE NOT AVAILABLE FOR
       CHILLICOTHE AND FARMINGTON.

MOZ001>031-035>038-043-044-053-054-240200-
...NORTHERN AND WESTERN MISSOURI...

CITY           SKY/WX    TMP DP  RH WIND       PRES   REMARKS
KANSAS CTY INT PTCLDY    55  55 100 S8        30.07R FOG
KANSAS C DTWN  PTCLDY    62  58  86 S6        30.07R
LEE`S SUMMIT   CLEAR     61  57  87 S6        30.09R
ST JOSEPH      CLEAR     60  58  92 S6        30.06R
CHILLICOTHE      N/A     57  55  93 CALM      30.07R
KIRKSVILLE     CLEAR     58  57  97 SW5       30.07R

$$
MOZ066>068-077>081-088>096-101>105-240200-
...SOUTHWEST MISSOURI...

CITY           SKY/WX    TMP DP  RH WIND       PRES   REMARKS
SPRINGFIELD    PTCLDY    57  55  93 CALM      30.12R
JOPLIN         CLOUDY    60  57  89 SW7       30.12R

$$
MOZ032>034-039>042-045>050-055>058-069>072-240200-
...CENTRAL MISSOURI...

CITY           SKY/WX    TMP DP  RH WIND       PRES   REMARKS
COLUMBIA       PTCLDY    57  52  83 S9        30.09R
JEFFERSON CITY CLOUDY    61  52  72 SE3       30.10R
ROLLA          PTCLDY    54  47  77 S9        30.10R
SEDALIA        CLOUDY    63  57  81 SW7       30.10R
WHITEMAN AFB   CLOUDY    63  58  86 SW7       30.08R
OSAGE BEACH    CLOUDY    61  52  72 S6        30.11R

$$
MOZ051-052-059>065-240200-
...EAST CENTRAL MISSOURI...

CITY           SKY/WX    TMP DP  RH WIND       PRES   REMARKS
ST LOUIS INTL  CLOUDY    62  45  53 S6        30.10S
SPIRIT OF STL  MOCLDY    60  48  64 S5        30.09S
ST CHARLES     CLOUDY    60  48  64 CALM      30.09S

$$
MOZ072>076-082>087-097>100-106>115-240200-
...SOUTH CENTRAL AND SOUTHEAST MISSOURI...

CITY           SKY/WX    TMP DP  RH WIND       PRES   REMARKS
CAPE GIRARDEAU MOCLDY    48  45  89 CALM      30.15S
FARMINGTON     CLEAR     54  45  71 SE5       30.14S
POPLAR BLUFF   CLOUDY    52  46  80 CALM      30.13F
WEST PLAINS    MOCLDY    54  47  77 CALM      30.14R

$$



USA.gov is the U.S. government's official web portal to all federal, state and local government web resources and services.